GFSSGP_850_rhum_072.txt.gz
RH
16 13 13 27 44 42 40 32 21 20 23 19 19 21 28 29 31 48 48 54 31 30 32 43 65 64 58 53 49 46 45 44 40 40 38 46 47 57 63 60 49 36 24 24 44 97 92 71 77
15 13 23 33 44 47 40 26 21 20 21 15 15 18 24 49 44 54 59 52 37 29 24 28 50 66 64 61 54 50 47 48 45 40 40 38 37 34 34 38 30 24 28 36 87 100 80 72 74
15 16 30 42 48 49 38 21 16 14 14 14 16 16 31 50 36 34 50 40 35 24 23 28 52 66 70 68 64 56 51 49 51 46 41 34 29 34 32 22 25 52 61 71 89 95 71 76 78
16 27 34 35 39 34 28 21 18 13 13 13 15 39 33 35 30 31 24 32 28 23 26 46 68 71 71 74 74 68 58 53 52 49 41 30 31 29 24 39 58 79 83 82 93 64 76 78 76
18 30 41 37 34 25 21 18 15 14 13 15 14 24 39 38 31 25 22 23 28 33 29 50 66 76 78 74 79 79 71 62 55 56 45 36 33 28 50 68 74 81 79 80 63 76 75 75 78
24 28 38 42 31 20 18 15 15 14 16 16 16 44 45 41 31 26 28 27 29 29 42 56 82 90 83 84 80 84 82 72 66 65 50 42 42 62 73 77 78 80 78 74 64 73 80 81 78
34 42 36 30 27 23 17 14 15 14 12 20 18 39 53 49 37 31 32 33 35 32 41 55 72 93 88 90 95 87 93 98 97 96 88 82 70 81 80 75 68 69 69 61 70 73 79 87 87
28 39 38 34 33 30 19 14 14 12 11 17 18 44 58 42 40 42 43 44 38 47 54 49 58 71 91 99 97 87 84 89 86 84 96 86 87 90 81 75 65 63 48 57 68 75 76 76 76
32 46 49 35 30 24 17 16 13 12 16 18 17 19 16 30 44 48 49 48 48 56 60 55 51 65 92 92 99 96 78 84 76 72 78 69 89 88 79 74 68 52 33 62 66 72 70 70 74
43 47 44 29 23 21 18 16 14 13 14 16 17 17 20 33 47 44 34 46 53 64 66 61 61 64 87 99 99 97 95 88 91 80 81 71 77 98 84 77 58 30 38 55 62 70 69 69 70
35 42 31 24 21 19 19 18 15 13 18 14 16 26 29 41 47 37 42 47 52 60 67 70 68 66 74 89 99 99 99 98 90 79 80 65 67 100 91 88 64 26 43 42 55 69 67 68 71
42 30 28 25 22 20 19 16 15 12 11 10 12 16 35 39 36 42 46 50 59 59 72 76 76 81 85 96 94 96 88 73 68 68 70 70 74 98 96 82 57 31 23 30 35 55 67 73 74
37 33 28 26 22 20 18 17 16 14 11 10 16 31 31 33 37 44 48 52 53 65 67 61 81 95 92 97 89 79 71 73 80 80 80 79 92 71 94 62 42 28 22 24 31 60 68 71 74
25 28 28 25 21 18 17 15 13 12 10 10 11 26 30 32 43 48 50 51 55 57 56 55 78 92 94 98 81 70 72 94 99 84 93 100 92 78 81 53 33 24 20 19 36 63 67 67 74
28 30 24 22 20 21 16 19 18 12 10 10 9 19 33 34 43 37 40 45 48 55 56 58 76 94 95 92 70 65 82 99 99 95 87 100 83 76 58 34 22 21 19 22 37 62 66 69 75
34 34 39 24 21 18 17 24 16 12 11 11 10 11 21 32 34 36 40 44 49 55 57 65 73 92 98 88 77 76 80 82 91 98 98 100 83 66 62 27 21 24 24 25 27 53 70 70 72
42 50 40 30 19 19 18 20 16 12 12 12 10 11 16 29 36 38 39 42 46 50 53 61 88 96 100 87 90 76 81 89 96 100 99 98 82 61 63 30 29 33 30 27 27 65 70 64 69
52 47 38 33 21 22 28 30 21 16 14 13 11 11 19 31 36 37 40 42 46 52 51 58 98 100 98 93 100 94 87 92 90 94 94 93 85 76 75 36 38 39 33 33 31 58 59 62 64
41 44 45 38 29 29 31 29 24 20 17 14 15 15 24 28 37 41 42 44 49 58 50 57 86 94 90 95 99 99 94 92 92 93 92 93 86 88 85 51 48 47 38 62 67 65 66 68 67
45 48 48 35 26 27 33 31 25 20 18 15 17 21 24 37 46 46 46 48 50 52 53 62 78 99 98 97 96 100 98 90 90 94 96 98 93 88 87 75 50 52 49 75 82 75 72 70 67
46 49 50 48 31 28 32 35 28 23 15 14 16 18 21 29 45 48 49 49 52 55 54 66 70 81 97 98 96 99 99 99 96 98 100 100 99 93 82 85 63 62 56 72 78 78 72 66 68
55 40 48 51 44 50 36 63 34 26 20 17 16 16 19 30 34 40 48 52 51 52 60 65 77 83 95 92 96 97 91 96 98 100 99 98 98 89 87 85 80 70 68 68 72 81 73 64 66
58 45 62 56 60 59 43 52 37 25 23 21 19 15 17 23 28 41 42 46 49 52 60 64 76 73 86 90 92 99 93 95 100 98 100 99 100 97 89 91 94 87 79 78 82 79 78 70 66
48 69 66 57 61 79 48 47 42 29 21 19 18 14 16 28 34 29 46 48 50 54 62 67 74 80 79 88 88 83 90 88 89 98 98 99 99 99 94 93 94 96 87 86 86 88 75 75 63
65 91 86 80 82 75 40 43 38 27 22 22 22 18 16 20 43 49 51 49 52 53 59 66 73 80 73 82 89 82 91 88 82 84 98 100 98 98 85 92 87 89 90 82 82 79 78 69 62
67 92 96 90 91 78 47 47 33 22 18 17 16 15 20 40 45 44 42 42 45 50 55 64 65 76 74 73 91 91 92 89 84 82 89 90 97 86 82 97 93 91 91 81 74 73 72 64 64
70 94 67 95 88 91 65 48 29 27 24 20 19 18 27 32 43 45 42 40 41 48 51 54 56 62 68 62 94 98 98 96 89 86 83 81 85 87 89 80 77 88 84 72 58 53 53 66 61
60 59 90 99 96 94 61 53 55 39 34 28 36 39 35 49 53 46 36 37 40 46 51 58 55 48 57 61 73 97 97 97 94 91 90 84 80 79 78 75 71 67 68 61 60 57 60 63 63
86 96 94 83 81 98 90 89 51 54 38 38 41 44 47 45 48 54 45 41 46 48 50 54 59 60 61 61 61 84 98 97 97 99 93 87 84 81 75 70 66 69 62 60 58 64 63 68 63
59 78 94 100 89 80 93 89 73 73 55 40 44 47 56 61 36 50 60 65 65 59 50 50 55 58 57 52 60 65 79 99 98 98 98 96 92 87 84 84 73 64 66 64 64 63 66 70 75

GFSSGP_850_rhum_078.txt.gz
RH
14 18 14 29 37 50 47 34 28 25 21 21 22 26 27 21 31 29 38 21 16 18 19 26 45 50 51 48 50 54 61 61 59 61 66 70 67 62 60 61 60 54 50 47 47 53 66 77 80
19 17 20 34 44 41 37 35 29 25 18 18 27 30 31 28 37 31 29 26 24 20 19 19 33 52 56 52 48 56 64 59 52 48 57 68 70 72 74 70 64 58 54 48 52 58 68 77 81
23 16 27 48 62 38 30 28 26 20 17 18 18 25 23 29 34 28 26 29 22 21 22 23 33 54 60 57 54 57 58 54 50 51 60 68 70 75 76 72 66 63 56 67 68 73 68 71 75
20 27 32 50 54 42 28 21 22 22 14 15 16 27 30 30 27 24 28 26 21 24 27 29 31 54 64 63 58 55 57 56 52 48 43 70 66 77 76 73 70 67 60 58 63 77 72 76 77
22 29 53 59 51 38 32 26 22 21 18 16 16 23 33 32 29 32 27 23 23 25 30 28 34 54 67 68 65 59 56 58 59 53 54 72 74 79 75 76 71 52 70 67 66 77 82 78 77
26 35 57 63 46 30 26 20 19 18 17 15 19 22 26 28 32 28 24 25 26 29 32 32 39 55 67 74 74 71 64 58 61 61 64 80 85 76 86 69 62 57 68 69 73 82 75 79 82
26 45 50 44 38 33 22 18 19 19 18 16 16 33 27 27 32 29 26 28 29 31 34 40 49 52 66 79 81 85 82 79 75 72 87 88 90 61 74 72 58 72 80 77 79 81 82 81 82
29 38 42 40 34 31 18 18 16 16 17 18 33 40 35 24 30 32 30 29 32 35 37 42 52 50 58 77 81 84 98 97 92 87 88 86 73 89 77 74 90 90 84 81 66 80 83 84 91
36 44 56 39 34 24 22 21 18 18 17 17 16 16 25 34 36 34 34 34 37 40 41 44 50 48 58 72 84 88 96 97 100 96 90 67 63 81 81 88 83 82 82 77 67 84 87 86 82
46 61 35 35 28 25 22 23 21 21 20 19 17 14 14 17 51 30 31 32 35 42 42 44 52 54 63 62 78 88 92 98 100 99 90 63 69 61 63 86 90 96 84 71 73 83 86 81 80
49 48 33 31 27 25 30 26 24 22 26 18 17 16 16 21 42 47 31 30 30 40 43 46 56 62 66 71 79 94 93 97 100 95 72 72 79 67 73 95 81 96 86 79 84 82 86 80 76
50 45 38 32 27 28 31 27 26 24 24 21 20 18 17 19 31 38 30 28 37 42 43 52 62 67 69 80 98 96 98 98 99 99 97 96 81 79 91 86 89 94 85 81 84 81 91 89 80
41 38 34 31 33 33 31 33 30 27 24 21 21 19 16 14 24 32 36 31 39 43 47 59 63 67 71 80 97 97 93 95 97 99 96 85 78 77 81 79 84 85 86 82 88 90 91 81 76
26 26 27 26 28 31 34 32 32 28 24 23 20 18 16 14 16 32 40 35 40 44 49 56 65 66 67 78 90 98 97 95 98 100 99 90 84 84 79 85 83 82 85 83 81 92 81 72 75
31 45 42 39 34 36 28 38 38 26 22 20 17 16 14 13 20 29 30 26 29 39 46 57 62 60 64 89 91 99 100 100 100 99 97 97 89 81 82 88 92 89 90 84 84 85 76 71 77
40 43 55 35 34 30 27 36 27 21 19 18 16 15 15 13 13 25 32 34 32 40 47 61 60 56 68 84 97 99 99 97 92 91 86 97 95 85 84 91 88 88 88 91 86 82 76 77 78
49 62 54 47 30 30 32 33 25 20 20 21 19 19 18 14 16 30 34 35 36 40 51 57 55 53 71 85 92 96 87 84 84 92 93 91 97 100 99 96 92 89 88 88 87 82 77 78 80
59 60 58 54 37 35 40 40 35 25 26 26 23 21 20 18 15 14 29 42 41 45 56 54 56 56 83 88 92 95 96 95 99 98 95 100 100 99 100 96 90 89 81 85 91 82 83 78 75
46 54 60 49 40 44 42 43 38 32 30 30 25 22 19 19 15 16 21 38 44 50 56 53 57 59 85 96 97 97 100 100 99 98 100 96 100 100 99 96 93 85 79 77 87 85 83 81 77
43 53 59 48 42 43 49 50 39 36 33 26 24 22 19 18 17 17 17 40 45 47 54 55 55 56 76 98 99 93 100 98 97 98 99 100 100 100 98 93 86 87 76 73 76 75 82 79 80
58 63 61 57 47 50 51 49 40 31 29 26 24 20 20 18 16 20 18 30 46 46 51 54 54 52 67 91 100 99 100 98 100 100 99 100 99 100 100 100 90 89 59 48 52 71 80 79 84
74 55 54 56 72 73 51 79 45 39 35 31 26 22 18 17 18 21 31 32 43 42 50 54 56 53 61 80 93 100 95 98 98 100 99 91 82 79 73 75 78 81 42 45 50 72 79 74 78
67 54 68 70 80 83 71 82 56 38 39 34 29 22 17 17 21 21 28 17 39 44 48 54 61 58 59 74 81 82 98 100 100 100 100 100 97 92 85 74 69 76 35 36 34 69 75 74 73
51 66 76 77 79 94 67 78 63 45 36 28 24 20 20 18 26 37 44 45 46 52 56 56 65 64 57 66 73 89 98 99 99 100 100 99 99 100 93 95 84 72 40 41 33 42 44 73 70
72 79 93 96 95 85 54 74 58 35 30 29 32 35 32 23 19 28 36 44 52 50 56 58 64 66 61 67 74 84 96 100 100 99 92 96 96 100 100 99 97 88 68 61 48 40 44 69 67
88 81 88 95 97 91 51 64 46 48 54 45 52 57 48 40 22 19 20 27 46 51 56 56 64 66 63 70 77 84 93 94 95 94 99 99 98 99 100 100 99 100 80 75 75 71 79 86 82
81 99 80 99 88 97 71 56 49 69 72 61 67 78 84 62 42 28 33 32 44 54 51 59 63 66 65 71 76 81 92 93 96 93 98 99 97 98 100 100 99 99 95 93 87 83 79 86 86
75 70 99 100 97 95 73 70 86 83 81 73 81 90 97 64 60 51 64 78 89 88 82 90 74 68 69 74 76 77 88 92 95 100 100 99 99 98 96 96 98 100 100 96 98 91 87 91 89
86 92 93 94 99 94 97 87 78 89 87 76 80 84 96 90 73 74 82 94 98 98 100 100 85 67 70 74 73 72 70 87 91 96 98 99 99 99 97 96 95 100 100 99 99 100 96 92 93
67 82 91 100 99 96 97 86 85 87 72 78 83 92 100 100 100 97 93 97 100 100 100 100 88 70 71 76 77 76 70 75 86 98 99 100 99 100 100 100 100 100 100 100 99 99 100 100 99

GFSSGP_850_rhum_084.txt.gz
RH
14 15 27 28 17 11 8 7 7 13 14 16 18 12 13 15 18 18 39 37 30 26 16 16 17 18 22 36 49 54 61 68 67 66 72 70 68 66 64 60 58 58 57 52 54 63 65 64 66
28 23 23 19 12 9 7 7 8 8 12 15 16 18 18 15 22 32 49 37 27 15 18 19 18 23 28 41 49 56 59 59 60 65 74 76 72 70 67 59 55 59 56 66 61 75 76 60 64
26 26 16 12 12 9 7 6 7 12 13 14 16 22 18 18 35 33 43 17 16 18 19 19 19 24 30 42 52 51 51 54 66 70 79 81 78 72 68 61 60 67 71 72 70 75 64 63 66
29 22 18 14 10 10 7 5 11 13 11 13 14 14 17 28 35 39 32 17 21 20 20 20 20 22 31 41 52 53 51 53 64 70 75 81 81 80 68 64 64 78 72 74 71 75 68 65 72
27 16 12 13 9 7 9 9 10 13 14 12 9 11 15 25 30 28 27 23 23 22 22 23 21 21 31 43 55 56 54 55 62 66 74 79 83 81 72 69 72 64 73 70 73 72 75 72 75
19 16 13 11 9 10 10 7 11 10 9 10 10 12 14 24 38 33 27 28 25 22 24 25 22 23 25 45 55 60 58 60 60 61 70 72 72 82 82 80 80 76 73 77 78 69 73 82 78
18 15 14 11 9 10 11 8 11 8 7 7 11 13 14 24 44 61 48 39 24 24 27 27 25 25 28 39 57 63 62 62 64 60 66 77 79 86 89 91 88 81 86 82 73 72 73 83 79
20 15 16 13 14 13 10 11 10 10 8 14 16 16 17 28 40 43 77 46 26 25 28 31 29 29 35 40 57 68 70 70 70 70 69 82 78 76 87 79 83 76 81 79 69 69 80 80 84
22 19 18 15 16 14 12 12 12 12 12 11 13 15 20 33 24 70 78 81 50 27 31 34 33 31 39 47 51 70 78 80 80 78 75 84 81 84 79 69 78 76 64 60 70 74 80 80 85
21 20 17 13 15 15 13 12 12 12 12 14 13 13 17 31 38 52 66 66 75 54 42 46 37 34 40 53 55 78 82 85 88 87 83 82 80 77 83 84 75 65 65 59 57 77 72 80 90
22 22 16 17 18 16 14 13 14 13 15 12 13 11 14 20 21 41 49 56 58 72 42 44 41 41 44 42 51 84 95 93 90 90 91 87 81 83 82 79 70 64 70 74 87 86 81 91 97
26 22 20 17 18 18 16 16 15 15 16 16 14 13 15 17 19 21 33 43 54 65 43 38 43 47 48 46 51 61 92 99 99 95 93 94 89 96 98 73 74 73 81 86 84 87 85 99 97
20 15 15 18 18 18 17 16 16 16 17 18 17 18 19 19 16 17 21 28 41 65 80 37 44 48 50 56 53 64 80 87 86 94 88 89 93 96 95 94 95 78 80 83 92 88 90 99 99
18 22 20 20 21 21 21 19 18 18 18 18 19 18 18 18 14 16 18 23 31 52 75 42 41 50 57 64 56 65 79 88 88 94 89 85 90 97 97 92 89 79 86 97 96 87 96 98 98
23 22 17 16 17 20 22 24 22 18 16 18 19 19 18 18 15 17 18 22 32 49 71 63 41 49 58 82 75 67 76 93 89 92 92 91 96 91 91 88 92 86 90 95 99 89 93 93 91
24 20 23 13 21 23 26 24 15 17 18 17 17 18 17 16 14 15 17 24 34 51 70 72 45 50 56 84 67 57 61 90 89 88 91 89 98 96 79 92 99 90 95 91 92 97 97 91 90
23 22 18 21 20 20 22 23 18 19 21 19 18 17 17 16 14 15 18 25 38 54 69 67 46 51 55 72 56 62 58 98 92 89 92 94 99 98 99 99 100 94 94 96 81 92 92 89 89
21 26 22 25 19 21 22 22 18 18 21 22 22 19 18 19 16 15 17 28 43 57 74 84 50 54 57 69 53 70 69 98 97 92 88 92 96 98 98 99 100 96 90 94 89 92 92 88 87
20 21 22 20 18 24 26 22 19 17 17 18 22 21 19 19 18 15 18 29 49 61 78 79 52 56 59 69 53 64 86 99 98 99 99 100 100 99 99 100 100 99 96 93 89 80 95 96 92
24 25 25 22 23 30 29 28 23 20 19 20 20 22 21 20 18 16 17 30 46 60 71 61 50 50 62 65 52 57 79 99 99 98 96 96 97 94 98 99 100 98 97 98 91 71 97 92 94
30 31 28 32 33 33 34 30 22 20 19 19 19 20 20 21 19 17 16 24 50 59 63 44 49 57 62 67 52 90 88 92 97 94 93 92 94 96 99 100 100 99 96 96 97 96 96 93 92
33 30 40 42 45 41 33 40 23 23 22 21 21 21 19 20 19 18 16 18 45 57 78 54 57 84 65 61 60 96 94 98 99 94 90 98 95 96 99 100 98 100 97 100 99 100 98 90 94
38 40 43 45 47 46 40 45 22 24 27 26 21 22 21 20 19 18 18 17 39 61 82 84 80 93 65 58 93 96 97 98 100 86 96 99 88 98 98 100 100 99 100 99 100 100 99 96 92
38 46 44 44 47 67 38 38 26 30 44 41 38 37 35 35 38 33 26 24 40 64 89 91 84 82 64 60 96 96 99 98 96 92 99 99 98 95 93 100 100 100 100 100 100 99 100 96 95
45 46 42 58 74 43 35 42 31 43 47 49 50 51 52 53 51 50 40 45 54 73 97 89 89 76 64 81 97 92 99 98 93 94 99 98 95 92 99 100 100 100 100 100 100 97 87 95 91
43 37 42 50 44 38 38 45 39 44 44 48 51 56 60 66 66 54 46 59 66 81 100 100 96 75 66 97 94 66 100 97 94 97 98 96 100 100 96 95 100 100 100 100 100 84 77 93 93
52 63 44 64 52 59 33 31 44 41 46 50 54 62 69 81 84 73 51 69 78 88 99 99 99 82 69 85 60 70 100 98 95 93 96 97 97 97 100 98 97 91 99 89 81 72 59 60 75
52 44 80 68 72 57 32 36 45 58 65 60 56 61 75 89 98 96 68 77 80 94 99 98 100 91 70 69 59 70 93 100 97 98 98 98 94 91 94 99 100 100 90 89 88 72 68 67 64
69 76 76 78 79 63 46 41 56 70 71 60 54 72 85 95 100 99 87 84 93 99 100 100 100 98 78 69 65 70 80 95 99 100 100 99 96 93 95 94 99 100 100 88 87 70 74 74 64
44 54 58 67 76 74 82 50 53 61 58 54 75 76 89 97 99 100 100 100 100 99 99 99 100 100 85 74 77 77 81 85 98 99 98 99 98 97 94 92 99 98 99 100 97 91 77 76 62

GFSSGP_850_rhum_087.txt.gz
RH
13 16 25 17 14 11 8 6 4 5 8 9 12 8 8 8 12 20 31 43 49 57 25 22 16 17 20 29 40 48 56 64 68 68 68 71 68 65 62 60 59 62 86 78 73 68 64 66 66
26 26 21 13 15 10 8 5 5 5 5 12 14 13 12 12 13 24 32 46 51 54 17 18 18 17 20 27 41 49 55 62 65 67 69 73 72 67 69 69 59 62 77 73 57 64 71 64 68
27 24 13 11 11 12 6 4 5 4 9 9 9 14 13 13 18 20 36 46 46 44 34 18 18 17 18 26 39 48 52 54 55 59 69 75 75 71 73 73 66 65 88 65 77 72 74 65 65
26 19 14 13 11 7 7 5 4 6 9 9 9 11 15 18 26 26 40 45 46 49 55 19 19 19 18 24 38 47 51 54 57 60 61 72 77 80 81 78 72 69 81 68 70 72 70 64 64
19 13 13 11 10 7 5 5 5 8 8 10 9 9 11 19 22 31 38 47 50 58 58 20 21 18 18 23 36 47 52 55 56 61 62 75 81 84 83 80 73 69 75 75 77 79 67 62 73
20 16 15 13 10 7 6 5 6 6 7 10 10 9 9 16 24 31 38 50 55 63 26 21 21 19 19 25 37 49 54 55 59 64 73 76 84 84 84 83 79 84 96 91 82 77 68 65 75
19 15 15 12 10 8 6 7 8 6 7 6 5 8 11 14 33 41 40 51 63 70 32 23 23 21 21 24 38 52 58 58 62 66 72 80 82 86 86 88 86 83 80 86 84 79 70 76 79
19 16 16 12 12 10 6 8 8 7 7 6 8 9 11 23 32 49 50 56 71 80 50 26 26 24 23 27 37 53 64 65 65 68 69 79 81 85 88 86 80 74 67 83 81 80 74 73 81
20 19 18 14 11 10 9 9 8 9 9 8 9 10 12 23 27 46 51 62 75 86 80 30 30 31 28 30 37 52 64 70 69 68 68 73 84 86 86 84 80 71 63 73 66 67 70 72 79
17 20 16 11 9 11 10 10 10 10 10 11 10 9 11 16 20 28 45 56 68 72 87 90 33 35 36 48 43 46 67 73 75 77 75 80 88 86 85 84 81 68 76 70 67 66 58 71 82
18 20 13 10 11 13 13 12 12 11 12 11 11 11 10 11 17 18 33 44 51 59 72 88 90 42 40 52 92 94 95 84 88 94 94 98 90 87 92 85 82 78 83 78 72 79 70 75 85
18 16 15 13 13 13 14 14 12 12 12 12 12 12 12 10 14 16 20 28 43 48 61 85 93 46 60 86 93 92 84 81 85 88 90 92 90 90 80 84 80 78 83 83 82 74 78 80 87
13 12 12 13 11 12 14 13 13 12 12 12 13 13 14 13 12 14 15 18 27 42 52 82 90 53 84 69 54 62 72 72 89 93 86 85 94 88 92 84 90 97 82 83 82 91 85 90 95
11 12 13 15 13 12 14 14 13 12 12 12 13 14 15 16 15 14 13 15 21 31 45 76 93 74 69 40 44 50 59 58 98 97 86 86 87 95 90 92 95 96 87 83 83 87 92 88 92
17 18 14 13 12 12 12 14 14 12 12 12 12 13 14 15 16 15 11 14 17 23 33 66 95 96 74 46 63 55 62 65 97 95 81 85 85 94 91 96 97 89 87 78 85 87 97 87 89
18 16 17 10 9 11 12 17 11 11 12 13 13 12 13 14 16 16 12 13 16 18 25 56 90 95 94 90 92 87 60 96 94 84 83 89 92 93 95 92 91 86 86 79 88 98 94 90 84
15 17 13 10 11 14 16 18 12 13 14 15 15 15 14 14 14 15 12 12 15 18 28 50 91 96 95 92 92 96 79 70 88 84 84 83 88 93 93 93 88 86 87 84 89 99 88 90 84
15 14 12 14 10 12 18 19 14 13 14 14 14 15 15 15 14 14 12 11 14 19 33 53 92 96 98 97 94 77 67 63 94 86 86 90 92 94 100 100 95 90 94 91 92 83 86 85 81
16 16 14 12 9 13 16 16 14 13 12 12 13 13 16 17 15 16 13 12 16 26 40 57 93 96 99 94 64 66 51 78 86 83 85 86 91 89 96 99 100 99 98 94 92 94 91 93 77
22 22 19 14 12 16 19 21 18 16 15 14 13 14 14 17 16 16 15 13 22 35 48 61 89 94 98 65 82 76 66 98 97 88 88 89 88 93 100 98 99 100 99 99 100 96 94 81 75
21 23 21 20 17 19 22 21 18 15 14 15 15 15 15 16 17 17 16 14 24 39 51 62 80 90 100 96 92 94 95 98 97 92 95 97 93 95 94 94 94 100 99 98 99 98 94 82 82
25 16 19 24 32 31 19 32 19 15 14 17 17 18 18 16 16 18 17 15 19 40 50 62 76 87 99 94 88 85 92 92 94 96 99 100 98 93 94 95 95 98 99 99 98 98 89 78 87
24 20 32 32 34 34 29 28 20 15 21 25 25 26 25 19 17 18 17 17 15 29 49 65 80 86 96 93 90 89 86 80 85 96 99 96 84 88 91 94 99 98 99 96 95 100 90 81 84
22 31 35 34 32 43 29 28 18 20 35 37 34 35 38 35 32 24 22 20 15 21 48 74 86 84 98 95 94 90 84 80 86 94 98 92 92 83 86 86 99 99 100 100 100 99 82 94 87
29 39 48 46 55 48 22 28 22 32 35 38 40 40 43 50 53 49 37 28 22 27 55 84 93 90 99 98 92 92 87 90 87 97 94 94 91 76 76 82 99 100 99 99 100 100 86 98 90
37 37 45 41 37 43 30 35 28 33 40 38 39 43 48 55 64 68 60 39 32 32 57 94 100 99 99 98 88 92 90 90 88 97 90 91 89 82 83 83 96 100 100 100 100 100 99 99 96
32 39 27 36 34 42 33 18 33 33 43 37 35 42 50 60 75 85 81 42 46 50 84 98 99 100 99 92 87 96 94 96 93 100 92 98 91 93 93 95 93 99 100 100 100 100 100 94 96
30 33 58 55 58 49 26 22 38 59 46 36 37 46 55 63 81 90 94 71 59 79 95 98 100 99 100 88 96 92 96 99 100 100 98 95 95 100 97 93 96 98 100 100 100 100 100 86 74
43 56 56 50 49 53 47 49 52 51 41 40 40 50 60 70 87 98 96 90 89 97 91 98 99 98 99 98 99 95 99 97 97 91 90 96 95 94 98 95 96 100 93 98 96 94 90 87 79
47 43 45 62 47 44 56 52 46 40 40 43 45 53 65 76 92 98 99 99 100 97 98 100 100 98 98 100 100 91 99 99 99 97 98 98 99 92 93 95 93 100 100 100 93 94 88 83 81